Preview of NWS' New Version of Forecast
This preview is not operational and should not be used for support decisions.

Regional Weather Roundup (RWR)

Issued by National Weather Service (NWS)

                            
000
ASUS43 KDTX 240110
RWRMI 
MICHIGAN HOURLY REGIONAL WEATHER ROUNDUP
NATIONAL WEATHER SERVICE DETROIT/PONTIAC MI
900 PM EDT THU MAY 23 2019

NOTE: "FAIR" INDICATES FEW OR NO CLOUDS BELOW 12,000 FEET WITH NO
SIGNIFICANT WEATHER AND/OR OBSTRUCTION TO VISIBILITY.

MIZ047>049-052>055-059>063-066>070-074>076-081>083-240200-
SOUTHEAST LOWER MICHIGAN
  
CITY           SKY/WX    TMP DP  RH WIND       PRES   REMARKS
ADRIAN         FAIR      66  47  50 W7        30.03R                  
ALMA           FAIR      65  46  51 NW9       30.03R                  
ANN ARBOR      FAIR      67  48  50 NW10      30.02R                  
BAD AXE        FAIR      63  46  55 NW8       29.98R                  
CARO           MOCLDY    65  47  53 W8        30.00R                  
DETROIT CITY   FAIR      70  47  43 NW9G17    30.00R                  
DETROIT        FAIR      69  46  43 W13       30.01R                  
FLINT          FAIR      65  49  56 W9        30.01R                  
GROSSE ILE     FAIR      70  47  43 NW10G18   29.99R                  
HILLSDALE      FAIR      65  47  51 W8        30.04R                  
HOWELL         FAIR      65  46  51 W8        30.02R                  

CITY           SKY/WX    TMP DP  RH WIND       PRES   REMARKS
JACKSON        FAIR      65  49  56 W5        30.04R                  
LAMBERTVILLE   FAIR      70  48  46 W5        30.01R                  
LANSING        FAIR      65  49  56 W10       30.03R                  
LAPEER         FAIR      67  48  51 NW8G16    30.01R                  
MASON          FAIR      65  49  55 W9        30.03S                  
MONROE         FAIR      68  50  51 W7        30.00R                  
MT. CLEMENS    PTCLDY    68  50  52 W12G18    29.98R                  
PONTIAC        FAIR      66  49  54 W12       30.00R                  
PORT HOPE        N/A     59  32  36 NW7       29.96R                  
TRI CITIES     FAIR      64  49  57 W8        30.01R                  
MIDLAND        FAIR      65  47  53 W6        30.00R                  
TROY           FAIR      69  43  39 W13       30.03R                  
SAGINAW HB     FAIR      64  48  55 W10       30.00R                  
$$
MIZ043>046-050>051-056>058-064>065-071>073-077>080-240200-
SOUTHWEST LOWER MICHIGAN
  
CITY           SKY/WX    TMP DP  RH WIND       PRES   REMARKS
BATTLE CREEK   FAIR      65  49  56 W9        30.05R                  
BENTON HARBOR  FAIR      63  49  60 W5        30.04S                  
BIG RAPIDS     FAIR      62  46  56 NW7       30.03R                  
COLDWATER      FAIR      66  47  50 W7        30.05R                  
FREMONT        FAIR      61  46  58 NW7       30.04R                  
HOLLAND        FAIR      61  48  62 NW5       30.06R                  
GRAND RAPIDS   FAIR      66  49  54 NW15G21   30.04R                  
IONIA          FAIR      65  46  49 W8        30.03R                  
KALAMAZOO      FAIR      67  48  50 NW8       30.06R                  
LUDINGTON      FAIR      57  46  65 NW5       30.04R                  
MARSHALL       FAIR      63  52  67 W7        30.05R                  
MOUNT PLEASANT FAIR      64  47  54 W6        30.01R                  
MUSKEGON       FAIR      57  47  69 SW6       30.05R                  
SOUTH HAVEN    FAIR      62  47  58 CALM      30.05S                  
$$
MIZ016>042-240200-
NORTHERN LOWER MICHIGAN
  
CITY           SKY/WX    TMP DP  RH WIND       PRES   REMARKS
ALPENA         CLOUDY    62  48  60 W13G24    29.98R                  
BEAVER ISLAND  CLOUDY    50  45  83 NW5       30.03R                  
BELLAIRE       CLOUDY    60  46  61 W6        30.01R                  
CADILLAC       FAIR      60  47  62 W10       30.01R                  
CHARLEVOIX     CLOUDY    49  47  93 W10       30.04S                  
FRANKFORT      FAIR      58  44  59 NW8       30.02S                  
GAYLORD        LGT RAIN  57  48  72 W7G18     30.01R                  
GRAYLING       FAIR      59  47  63 NW8       29.99R                  
HARBOR SPRINGS HVY RAIN  46  45  96 SW6       30.01S                  
HOUGHTON LAKE  FAIR      61  46  57 NW12      30.01R                  
MANISTEE       FAIR      55  46  71 CALM      30.04R                  
OSCODA         FAIR      62  46  55 NW9G17    29.97R                  
PELLSTON       CLOUDY    54  50  86 W8        30.01R                  
ROGERS CITY    MOCLDY    58  49  70 W15       29.98R                  
TRAVERSE CITY  MOCLDY    62  47  57 W16       29.99R                  
$$
MIZ007>008-015-240200-
EASTERN UPPER MICHIGAN
  
CITY           SKY/WX    TMP DP  RH WIND       PRES   REMARKS
KINROSS        CLOUDY    48  46  93 N10       29.99R                  
MACKINAC ISLAN FAIR      49  46  87 W10       29.99R                  
NEWBERRY       CLOUDY    50  48  92 W12G17    30.01R                  
S. S. MARIE    CLOUDY    48  46  93 W7        29.98S FOG              
MUNISING         N/A     49  45  86 NW6       30.05R                  
$$
MIZ004>006-011>014-085-240200-
CENTRAL UPPER MICHIGAN
  
CITY           SKY/WX    TMP DP  RH WIND       PRES   REMARKS
MANISTIQUE     CLOUDY    51  49  90 NW12G20   30.02R                  
ESCANABA       CLOUDY    60  48  64 NW3       30.03R                  
MENOMINEE      MOCLDY    60  51  72 VRB7G16   30.04R                  
SAWYER-GWINN   CLOUDY    54  46  76 N13       30.04R                  
$$
MIZ001>003-009>011-084-240200-
WESTERN UPPER MICHIGAN
  
CITY           SKY/WX    TMP DP  RH WIND       PRES   REMARKS
IRON MOUNTAIN  MOCLDY    55  47  74 NW13      30.05R                  
HOUGHTON       CLOUDY    46  43  89 NW8       30.08R                  
COPPER HARBOR    N/A     45  43  93 N13       30.07R                  
IRONWOOD       CLOUDY    51  47  86 NW5       30.12R                  
$$

ABBREVIATIONS USED IN REMARKS
   TC - TEMPERATURE IN CELSIUS
  WCI - WIND CHILL INDEX
   HX - HEAT INDEX
  VSB - VISIBILITY